owner,sensor,date,latitude,longitude,vertical_datum,direction_of_sea_water_velocity,sea_water_speed,upward_sea_water_velocity,qcFlag 
TABS,ioos:station:wmo:42051:1,2014-03-01T00:00:00Z,29.6350,-93.6417,2.0,274.529519,19.8820849,-99999.0,'11111222,11111222,99999999' 
TABS,ioos:station:wmo:42051:1,2014-03-01T00:30:00Z,29.6350,-93.6417,2.0,271.5758116,18.18687439,-99999.0,'11111222,11111222,99999999' 
TABS,ioos:station:wmo:42051:1,2014-03-01T01:00:00Z,29.6350,-93.6417,2.0,283.7764412,20.82917425,-99999.0,'11111222,11111222,99999999' 
TABS,ioos:station:wmo:42051:1,2014-03-01T01:30:00Z,29.6350,-93.6417,2.0,277.217167,20.13954568,-99999.0,'11111222,11111222,99999999' 
TABS,ioos:station:wmo:42051:1,2014-03-01T02:00:00Z,29.6350,-93.6417,2.0,283.1386742,21.82118466,-99999.0,'11111222,11111222,99999999' 
TABS,ioos:station:wmo:42051:1,2014-03-01T02:30:00Z,29.6350,-93.6417,2.0,289.6881449,22.70741949,-99999.0,'11111222,11111222,99999999' 
TABS,ioos:station:wmo:42051:1,2014-03-01T03:00:00Z,29.6350,-93.6417,2.0,285.7595582,19.4407433,-99999.0,'11111222,11111222,99999999' 
TABS,ioos:station:wmo:42051:1,2014-03-01T03:30:00Z,29.6350,-93.6417,2.0,287.6429063,22.86545429,-99999.0,'11111222,11111222,99999999' 
TABS,ioos:station:wmo:42051:1,2014-03-01T04:00:00Z,29.6350,-93.6417,2.0,268.7880002,25.06560392,-99999.0,'11111222,11111222,99999999' 
TABS,ioos:station:wmo:42051:1,2014-03-01T04:30:00Z,29.6350,-93.6417,2.0,273.7650051,26.95816945,-99999.0,'11111222,11111222,99999999' 
TABS,ioos:station:wmo:42051:1,2014-03-01T05:00:00Z,29.6350,-93.6417,2.0,268.4915959,27.35947551,-99999.0,'11111222,11111222,99999999' 
TABS,ioos:station:wmo:42051:1,2014-03-01T05:30:00Z,29.6350,-93.6417,2.0,271.4058889,25.27760471,-99999.0,'11111222,11111222,99999999' 
TABS,ioos:station:wmo:42051:1,2014-03-01T06:00:00Z,29.6350,-93.6417,2.0,263.3704119,27.80590765,-99999.0,'11111222,11111222,99999999' 
TABS,ioos:station:wmo:42051:1,2014-03-01T06:30:00Z,29.6350,-93.6417,2.0,253.890998,35.68092488,-99999.0,'11111222,11111222,99999999' 
TABS,ioos:station:wmo:42051:1,2014-03-01T07:00:00Z,29.6350,-93.6417,2.0,252.1054824,34.17309468,-99999.0,'11111222,11111222,99999999' 
TABS,ioos:station:wmo:42051:1,2014-03-01T07:30:00Z,29.6350,-93.6417,2.0,252.9799754,38.02534024,-99999.0,'11111222,11111222,99999999' 
TABS,ioos:station:wmo:42051:1,2014-03-01T08:00:00Z,29.6350,-93.6417,2.0,257.4428924,37.85545403,-99999.0,'11111222,11111222,99999999' 
TABS,ioos:station:wmo:42051:1,2014-03-01T08:30:00Z,29.6350,-93.6417,2.0,253.3601079,35.83038515,-99999.0,'11111222,11111222,99999999' 
TABS,ioos:station:wmo:42051:1,2014-03-01T09:00:00Z,29.6350,-93.6417,2.0,253.1422834,31.2424967,-99999.0,'11111222,11111222,99999999' 
TABS,ioos:station:wmo:42051:1,2014-03-01T09:30:00Z,29.6350,-93.6417,2.0,260.4357334,31.53835126,-99999.0,'11111222,11111222,99999999' 
TABS,ioos:station:wmo:42051:1,2014-03-01T10:00:00Z,29.6350,-93.6417,2.0,262.3931147,28.78327639,-99999.0,'11111222,11111222,99999999' 
TABS,ioos:station:wmo:42051:1,2014-03-01T10:30:00Z,29.6350,-93.6417,2.0,263.5869219,27.93478119,-99999.0,'11111222,11111222,99999999' 
TABS,ioos:station:wmo:42051:1,2014-03-01T11:00:00Z,29.6350,-93.6417,2.0,261.2885494,23.57190913,-99999.0,'11111222,11111222,99999999' 
TABS,ioos:station:wmo:42051:1,2014-03-01T11:30:00Z,29.6350,-93.6417,2.0,257.7036854,21.88195604,-99999.0,'11111222,11111222,99999999' 
TABS,ioos:station:wmo:42051:1,2014-03-01T12:00:00Z,29.6350,-93.6417,2.0,277.9545502,23.48595538,-99999.0,'11111222,11111222,99999999' 
TABS,ioos:station:wmo:42051:1,2014-03-01T12:30:00Z,29.6350,-93.6417,2.0,272.5469672,21.83155972,-99999.0,'11111222,11111222,99999999' 
TABS,ioos:station:wmo:42051:1,2014-03-01T13:00:00Z,29.6350,-93.6417,2.0,273.4484182,22.28033213,-99999.0,'11111222,11111222,99999999' 
TABS,ioos:station:wmo:42051:1,2014-03-01T13:30:00Z,29.6350,-93.6417,2.0,280.7885427,20.88919577,-99999.0,'11111222,11111222,99999999' 
TABS,ioos:station:wmo:42051:1,2014-03-01T14:00:00Z,29.6350,-93.6417,2.0,287.7882541,23.24106065,-99999.0,'11111222,11111222,99999999' 
TABS,ioos:station:wmo:42051:1,2014-03-01T14:30:00Z,29.6350,-93.6417,2.0,299.5547603,21.26711311,-99999.0,'11111222,11111222,99999999' 
TABS,ioos:station:wmo:42051:1,2014-03-01T15:00:00Z,29.6350,-93.6417,2.0,297.0448603,21.37755833,-99999.0,'11111222,11111222,99999999' 
TABS,ioos:station:wmo:42051:1,2014-03-01T15:30:00Z,29.6350,-93.6417,2.0,299.6182853,20.15321314,-99999.0,'11111222,11111222,99999999' 
TABS,ioos:station:wmo:42051:1,2014-03-01T16:00:00Z,29.6350,-93.6417,2.0,302.9148704,24.38408087,-99999.0,'11111222,11111222,99999999' 
TABS,ioos:station:wmo:42051:1,2014-03-01T16:30:00Z,29.6350,-93.6417,2.0,301.1419,23.76467336,-99999.0,'11111222,11111222,99999999' 
TABS,ioos:station:wmo:42051:1,2014-03-01T17:00:00Z,29.6350,-93.6417,2.0,299.0112779,24.20736458,-99999.0,'11111222,11111222,99999999' 
TABS,ioos:station:wmo:42051:1,2014-03-01T17:30:00Z,29.6350,-93.6417,2.0,294.633065,26.12765967,-99999.0,'11111222,11111222,99999999' 
TABS,ioos:station:wmo:42051:1,2014-03-01T18:00:00Z,29.6350,-93.6417,2.0,285.7954469,25.12882807,-99999.0,'11111222,11111222,99999999' 
TABS,ioos:station:wmo:42051:1,2014-03-01T18:30:00Z,29.6350,-93.6417,2.0,280.5736194,25.01471967,-99999.0,'11111222,11111222,99999999' 
TABS,ioos:station:wmo:42051:1,2014-03-01T19:00:00Z,29.6350,-93.6417,2.0,285.6744173,22.91199904,-99999.0,'11111222,11111222,99999999' 
TABS,ioos:station:wmo:42051:1,2014-03-01T19:30:00Z,29.6350,-93.6417,2.0,275.218534,24.07979443,-99999.0,'11111222,11111222,99999999' 
TABS,ioos:station:wmo:42051:1,2014-03-01T20:00:00Z,29.6350,-93.6417,2.0,275.730554,26.24112231,-99999.0,'11111222,11111222,99999999' 
TABS,ioos:station:wmo:42051:1,2014-03-01T20:30:00Z,29.6350,-93.6417,2.0,269.7864266,26.88018601,-99999.0,'11111222,11111222,99999999' 
TABS,ioos:station:wmo:42051:1,2014-03-01T21:00:00Z,29.6350,-93.6417,2.0,267.397023,25.76657719,-99999.0,'11111222,11111222,99999999' 
TABS,ioos:station:wmo:42051:1,2014-03-01T21:30:00Z,29.6350,-93.6417,2.0,249.8700303,26.73293848,-99999.0,'11111222,11111222,99999999' 
TABS,ioos:station:wmo:42051:1,2014-03-01T22:00:00Z,29.6350,-93.6417,2.0,233.9092799,28.07859861,-99999.0,'11111222,11111222,99999999' 
TABS,ioos:station:wmo:42051:1,2014-03-01T22:30:00Z,29.6350,-93.6417,2.0,233.1297677,27.1,-99999.0,'11111222,11111222,99999999' 
TABS,ioos:station:wmo:42051:1,2014-03-01T23:00:00Z,29.6350,-93.6417,2.0,238.818814,28.0642299,-99999.0,'11111222,11111222,99999999' 
TABS,ioos:station:wmo:42051:1,2014-03-01T23:30:00Z,29.6350,-93.6417,2.0,245.90644,28.93033356,-99999.0,'11111222,11111222,99999999' 
TABS,ioos:station:wmo:42051:1,2014-03-02T00:00:00Z,29.6350,-93.6417,2.0,243.7332068,32.6067861,-99999.0,'11111222,11111222,99999999' 
TABS,ioos:station:wmo:42051:1,2014-03-02T00:30:00Z,29.6350,-93.6417,2.0,236.6522636,30.14294777,-99999.0,'11111222,11111222,99999999' 
TABS,ioos:station:wmo:42051:1,2014-03-02T01:00:00Z,29.6350,-93.6417,2.0,237.2505316,29.72484483,-99999.0,'11111222,11111222,99999999' 
TABS,ioos:station:wmo:42051:1,2014-03-02T01:30:00Z,29.6350,-93.6417,2.0,250.2073271,29.50284224,-99999.0,'11111222,11111222,99999999' 
TABS,ioos:station:wmo:42051:1,2014-03-02T02:00:00Z,29.6350,-93.6417,2.0,249.2483594,28.16728599,-99999.0,'11111222,11111222,99999999' 
TABS,ioos:station:wmo:42051:1,2014-03-02T02:30:00Z,29.6350,-93.6417,2.0,261.6511237,29.68455828,-99999.0,'11111222,11111222,99999999' 
TABS,ioos:station:wmo:42051:1,2014-03-02T03:00:00Z,29.6350,-93.6417,2.0,270.3447172,28.29051078,-99999.0,'11111222,11111222,99999999' 
TABS,ioos:station:wmo:42051:1,2014-03-02T03:30:00Z,29.6350,-93.6417,2.0,268.3461433,29.11212119,-99999.0,'11111222,11111222,99999999' 
TABS,ioos:station:wmo:42051:1,2014-03-02T04:00:00Z,29.6350,-93.6417,2.0,267.1085159,28.94684266,-99999.0,'11111222,11111222,99999999' 
TABS,ioos:station:wmo:42051:1,2014-03-02T04:30:00Z,29.6350,-93.6417,2.0,272.1547859,30.59162304,-99999.0,'11111222,11111222,99999999' 
TABS,ioos:station:wmo:42051:1,2014-03-02T05:00:00Z,29.6350,-93.6417,2.0,276.7589529,31.60965833,-99999.0,'11111222,11111222,99999999' 
TABS,ioos:station:wmo:42051:1,2014-03-02T05:30:00Z,29.6350,-93.6417,2.0,282.0235139,30.72397272,-99999.0,'11111222,11111222,99999999' 
TABS,ioos:station:wmo:42051:1,2014-03-02T06:00:00Z,29.6350,-93.6417,2.0,285.2973697,32.40817952,-99999.0,'11111222,11111222,99999999' 
TABS,ioos:station:wmo:42051:1,2014-03-02T06:30:00Z,29.6350,-93.6417,2.0,284.9853151,33.1058001,-99999.0,'11111222,11111222,99999999' 
TABS,ioos:station:wmo:42051:1,2014-03-02T07:00:00Z,29.6350,-93.6417,2.0,288.6374908,34.95287256,-99999.0,'11111222,11111222,99999999' 
TABS,ioos:station:wmo:42051:1,2014-03-02T07:30:00Z,29.6350,-93.6417,2.0,276.8249575,31.22121234,-99999.0,'11111222,11111222,99999999' 
TABS,ioos:station:wmo:42051:1,2014-03-02T08:00:00Z,29.6350,-93.6417,2.0,281.4234223,30.80009903,-99999.0,'11111222,11111222,99999999' 
TABS,ioos:station:wmo:42051:1,2014-03-02T08:30:00Z,29.6350,-93.6417,2.0,275.1306129,29.07647847,-99999.0,'11111222,11111222,99999999' 
TABS,ioos:station:wmo:42051:1,2014-03-02T09:00:00Z,29.6350,-93.6417,2.0,270.9799164,27.49401753,-99999.0,'11111222,11111222,99999999' 
TABS,ioos:station:wmo:42051:1,2014-03-02T09:30:00Z,29.6350,-93.6417,2.0,267.8469264,28.21991495,-99999.0,'11111222,11111222,99999999' 
TABS,ioos:station:wmo:42051:1,2014-03-02T10:00:00Z,29.6350,-93.6417,2.0,261.0344088,28.04259082,-99999.0,'11111222,11111222,99999999' 
TABS,ioos:station:wmo:42051:1,2014-03-02T10:30:00Z,29.6350,-93.6417,2.0,250.650849,27.16425777,-99999.0,'11111222,11111222,99999999' 
TABS,ioos:station:wmo:42051:1,2014-03-02T11:00:00Z,29.6350,-93.6417,2.0,245.0534471,26.43640293,-99999.0,'11111222,11111222,99999999' 
TABS,ioos:station:wmo:42051:1,2014-03-02T11:30:00Z,29.6350,-93.6417,2.0,233.2521941,28.0800641,-99999.0,'11111222,11111222,99999999' 
TABS,ioos:station:wmo:42051:1,2014-03-02T12:00:00Z,29.6350,-93.6417,2.0,244.2001103,29.45611651,-99999.0,'11111222,11111222,99999999' 
TABS,ioos:station:wmo:42051:1,2014-03-02T12:30:00Z,29.6350,-93.6417,2.0,236.6594278,26.34597692,-99999.0,'11111222,11111222,99999999' 
TABS,ioos:station:wmo:42051:1,2014-03-02T13:00:00Z,29.6350,-93.6417,2.0,228.5730403,25.52668604,-99999.0,'11111222,11111222,99999999' 
TABS,ioos:station:wmo:42051:1,2014-03-02T13:30:00Z,29.6350,-93.6417,2.0,233.8249241,26.86997767,-99999.0,'11111222,11111222,99999999' 
TABS,ioos:station:wmo:42051:1,2014-03-02T14:00:00Z,29.6350,-93.6417,2.0,240.3193887,24.19423072,-99999.0,'11111222,11111222,99999999' 
TABS,ioos:station:wmo:42051:1,2014-03-02T14:30:00Z,29.6350,-93.6417,2.0,236.976935,20.95522131,-99999.0,'11111222,11111222,99999999' 
TABS,ioos:station:wmo:42051:1,2014-03-02T15:00:00Z,29.6350,-93.6417,2.0,228.6527551,20.087292,-99999.0,'11111222,11111222,99999999' 
TABS,ioos:station:wmo:42051:1,2014-03-02T15:30:00Z,29.6350,-93.6417,2.0,236.3509292,19.2203668,-99999.0,'11111222,11111222,99999999' 
TABS,ioos:station:wmo:42051:1,2014-03-02T16:00:00Z,29.6350,-93.6417,2.0,236.763653,19.24870125,-99999.0,'11111222,11111222,99999999' 
TABS,ioos:station:wmo:42051:1,2014-03-02T16:30:00Z,29.6350,-93.6417,2.0,242.6949916,19.40174219,-99999.0,'11111222,11111222,99999999' 
TABS,ioos:station:wmo:42051:1,2014-03-02T17:00:00Z,29.6350,-93.6417,2.0,248.7703951,19.52498143,-99999.0,'11111222,11111222,99999999' 
TABS,ioos:station:wmo:42051:1,2014-03-02T17:30:00Z,29.6350,-93.6417,2.0,239.4677635,23.20784781,-99999.0,'11111222,11111222,99999999' 
TABS,ioos:station:wmo:42051:1,2014-03-02T18:00:00Z,29.6350,-93.6417,2.0,236.1448605,26.04605536,-99999.0,'11111222,11111222,99999999' 
TABS,ioos:station:wmo:42051:1,2014-03-02T18:30:00Z,29.6350,-93.6417,2.0,227.066893,31.1683381,-99999.0,'11111222,11111222,99999999' 
TABS,ioos:station:wmo:42051:1,2014-03-02T19:00:00Z,29.6350,-93.6417,2.0,224.3106617,31.1644493,-99999.0,'11111222,11111222,99999999' 
TABS,ioos:station:wmo:42051:1,2014-03-02T19:30:00Z,29.6350,-93.6417,2.0,221.6213354,35.99772493,-99999.0,'11111222,11111222,99999999' 
TABS,ioos:station:wmo:42051:1,2014-03-02T20:00:00Z,29.6350,-93.6417,2.0,228.1616415,40.25323093,-99999.0,'11111222,11111222,99999999' 
TABS,ioos:station:wmo:42051:1,2014-03-02T20:30:00Z,29.6350,-93.6417,2.0,243.2703972,32.77194684,-99999.0,'11111222,11111222,99999999' 
TABS,ioos:station:wmo:42051:1,2014-03-02T21:00:00Z,29.6350,-93.6417,2.0,254.7220536,29.10868084,-99999.0,'11111222,11111222,99999999' 
TABS,ioos:station:wmo:42051:1,2014-03-02T21:30:00Z,29.6350,-93.6417,2.0,261.5663184,29.93366332,-99999.0,'11111222,11111222,99999999' 
TABS,ioos:station:wmo:42051:1,2014-03-02T22:00:00Z,29.6350,-93.6417,2.0,294.4804824,47.20333886,-99999.0,'11111222,11111222,99999999' 
TABS,ioos:station:wmo:42051:1,2014-03-02T22:30:00Z,29.6350,-93.6417,2.0,294.646543,51.82086549,-99999.0,'11111222,11111222,99999999' 
TABS,ioos:station:wmo:42051:1,2014-03-02T23:00:00Z,29.6350,-93.6417,2.0,290.7799864,47.69228973,-99999.0,'11111222,11111222,99999999' 
TABS,ioos:station:wmo:42051:1,2014-03-02T23:30:00Z,29.6350,-93.6417,2.0,280.978716,39.64554073,-99999.0,'11111222,11111222,99999999' 
TABS,ioos:station:wmo:42051:1,2014-03-03T00:00:00Z,29.6350,-93.6417,2.0,281.6280872,38.89827246,-99999.0,'11111222,11111222,99999999' 
TABS,ioos:station:wmo:42051:1,2014-03-03T00:30:00Z,29.6350,-93.6417,2.0,283.8131573,40.41886936,-99999.0,'11111222,11111222,99999999' 
TABS,ioos:station:wmo:42051:1,2014-03-03T01:00:00Z,29.6350,-93.6417,2.0,277.8647487,39.02705728,-99999.0,'11111222,11111222,99999999' 
TABS,ioos:station:wmo:42051:1,2014-03-03T01:30:00Z,29.6350,-93.6417,2.0,274.9275193,38.42197809,-99999.0,'11111222,11111222,99999999' 
TABS,ioos:station:wmo:42051:1,2014-03-03T02:00:00Z,29.6350,-93.6417,2.0,277.4669892,33.70579772,-99999.0,'11111222,11111222,99999999' 
TABS,ioos:station:wmo:42051:1,2014-03-03T02:30:00Z,29.6350,-93.6417,2.0,269.3296913,32.50222146,-99999.0,'11111222,11111222,99999999' 
TABS,ioos:station:wmo:42051:1,2014-03-03T03:00:00Z,29.6350,-93.6417,2.0,268.8560317,31.06618741,-99999.0,'11111222,11111222,99999999' 
TABS,ioos:station:wmo:42051:1,2014-03-03T03:30:00Z,29.6350,-93.6417,2.0,258.8579015,28.72133179,-99999.0,'11111222,11111222,99999999' 
TABS,ioos:station:wmo:42051:1,2014-03-03T04:00:00Z,29.6350,-93.6417,2.0,231.3398612,15.30346693,-99999.0,'11111222,11111222,99999999' 
TABS,ioos:station:wmo:42051:1,2014-03-03T04:30:00Z,29.6350,-93.6417,2.0,207.959341,23.88828165,-99999.0,'11111222,11111222,99999999' 
TABS,ioos:station:wmo:42051:1,2014-03-03T05:00:00Z,29.6350,-93.6417,2.0,202.0364088,28.49147592,-99999.0,'11111222,11111222,99999999' 
TABS,ioos:station:wmo:42051:1,2014-03-03T05:30:00Z,29.6350,-93.6417,2.0,200.9038197,35.45358797,-99999.0,'11111222,11111222,99999999' 
TABS,ioos:station:wmo:42051:1,2014-03-03T06:00:00Z,29.6350,-93.6417,2.0,205.6784019,42.78557233,-99999.0,'11111222,11111222,99999999' 
TABS,ioos:station:wmo:42051:1,2014-03-03T06:30:00Z,29.6350,-93.6417,2.0,205.7310556,50.09769855,-99999.0,'11111222,11111222,99999999' 
TABS,ioos:station:wmo:42051:1,2014-03-03T07:00:00Z,29.6350,-93.6417,2.0,210.3340805,52.92594165,-99999.0,'11111222,11111222,99999999' 
TABS,ioos:station:wmo:42051:1,2014-03-03T07:30:00Z,29.6350,-93.6417,2.0,225.9300372,46.59740873,-99999.0,'11111222,11111222,99999999' 
TABS,ioos:station:wmo:42051:1,2014-03-03T08:00:00Z,29.6350,-93.6417,2.0,229.1581082,36.46958459,-99999.0,'11111222,11111222,99999999' 
TABS,ioos:station:wmo:42051:1,2014-03-03T08:30:00Z,29.6350,-93.6417,2.0,225.2074556,40.94882294,-99999.0,'11111222,11111222,99999999' 
TABS,ioos:station:wmo:42051:1,2014-03-03T09:00:00Z,29.6350,-93.6417,2.0,229.2447721,34.38902441,-99999.0,'11111222,11111222,99999999' 
TABS,ioos:station:wmo:42051:1,2014-03-03T09:30:00Z,29.6350,-93.6417,2.0,228.7270786,28.60641362,-99999.0,'11111222,11111222,99999999' 
TABS,ioos:station:wmo:42051:1,2014-03-03T10:00:00Z,29.6350,-93.6417,2.0,234.5920116,28.6853412,-99999.0,'11111222,11111222,99999999' 
TABS,ioos:station:wmo:42051:1,2014-03-03T10:30:00Z,29.6350,-93.6417,2.0,227.7541537,27.3683686,-99999.0,'11111222,11111222,99999999' 
TABS,ioos:station:wmo:42051:1,2014-03-03T11:00:00Z,29.6350,-93.6417,2.0,228.443684,28.83839975,-99999.0,'11111222,11111222,99999999' 
TABS,ioos:station:wmo:42051:1,2014-03-03T11:30:00Z,29.6350,-93.6417,2.0,226.3948414,29.33241381,-99999.0,'11111222,11111222,99999999' 
TABS,ioos:station:wmo:42051:1,2014-03-03T12:00:00Z,29.6350,-93.6417,2.0,224.9698273,27.13876195,-99999.0,'11111222,11111222,99999999' 
TABS,ioos:station:wmo:42051:1,2014-03-03T12:30:00Z,29.6350,-93.6417,2.0,237.7119577,25.38513738,-99999.0,'11111222,11111222,99999999' 
TABS,ioos:station:wmo:42051:1,2014-03-03T13:00:00Z,29.6350,-93.6417,2.0,239.7005478,25.13309372,-99999.0,'11111222,11111222,99999999' 
TABS,ioos:station:wmo:42051:1,2014-03-03T13:30:00Z,29.6350,-93.6417,2.0,237.4301447,29.49905083,-99999.0,'11111222,11111222,99999999' 
TABS,ioos:station:wmo:42051:1,2014-03-03T14:00:00Z,29.6350,-93.6417,2.0,234.8555077,29.6194345,-99999.0,'11111222,11111222,99999999' 
TABS,ioos:station:wmo:42051:1,2014-03-03T14:30:00Z,29.6350,-93.6417,2.0,251.3514151,20.3905076,-99999.0,'11111222,11111222,99999999' 
TABS,ioos:station:wmo:42051:1,2014-03-03T15:00:00Z,29.6350,-93.6417,2.0,232.3045163,22.63434779,-99999.0,'11111222,11111222,99999999' 
TABS,ioos:station:wmo:42051:1,2014-03-03T15:30:00Z,29.6350,-93.6417,2.0,238.214312,17.94059642,-99999.0,'11111222,11111222,99999999' 
TABS,ioos:station:wmo:42051:1,2014-03-03T16:00:00Z,29.6350,-93.6417,2.0,243.934976,20.48316382,-99999.0,'11111222,11111222,99999999' 
TABS,ioos:station:wmo:42051:1,2014-03-03T16:30:00Z,29.6350,-93.6417,2.0,254.3010567,18.8117038,-99999.0,'11111222,11111222,99999999' 
TABS,ioos:station:wmo:42051:1,2014-03-03T17:00:00Z,29.6350,-93.6417,2.0,270.2110657,19.04012868,-99999.0,'11111222,11111222,99999999' 
TABS,ioos:station:wmo:42051:1,2014-03-03T17:30:00Z,29.6350,-93.6417,2.0,266.2115606,17.55835983,-99999.0,'11111222,11111222,99999999' 
TABS,ioos:station:wmo:42051:1,2014-03-03T18:00:00Z,29.6350,-93.6417,2.0,274.1775181,12.49318614,-99999.0,'11111222,11111222,99999999' 
TABS,ioos:station:wmo:42051:1,2014-03-03T18:30:00Z,29.6350,-93.6417,2.0,293.3460428,13.29875934,-99999.0,'11111222,11111222,99999999' 
TABS,ioos:station:wmo:42051:1,2014-03-03T19:00:00Z,29.6350,-93.6417,2.0,291.3543894,11.17734315,-99999.0,'11111222,11111222,99999999' 
TABS,ioos:station:wmo:42051:1,2014-03-03T19:30:00Z,29.6350,-93.6417,2.0,277.2770211,15.00081331,-99999.0,'11111222,11111222,99999999' 
TABS,ioos:station:wmo:42051:1,2014-03-03T20:00:00Z,29.6350,-93.6417,2.0,278.036884,17.30999711,-99999.0,'11111222,11111222,99999999' 
TABS,ioos:station:wmo:42051:1,2014-03-03T20:30:00Z,29.6350,-93.6417,2.0,259.5835751,17.97623153,-99999.0,'11111222,11111222,99999999' 
TABS,ioos:station:wmo:42051:1,2014-03-03T21:00:00Z,29.6350,-93.6417,2.0,244.8272779,22.26439759,-99999.0,'11111222,11111222,99999999' 
TABS,ioos:station:wmo:42051:1,2014-03-03T21:30:00Z,29.6350,-93.6417,2.0,257.8573493,21.06117281,-99999.0,'11111222,11111222,99999999' 
TABS,ioos:station:wmo:42051:1,2014-03-03T22:00:00Z,29.6350,-93.6417,2.0,258.249623,21.70481283,-99999.0,'11111222,11111222,99999999' 
TABS,ioos:station:wmo:42051:1,2014-03-03T22:30:00Z,29.6350,-93.6417,2.0,267.5346598,26.27431065,-99999.0,'11111222,11111222,99999999' 
TABS,ioos:station:wmo:42051:1,2014-03-03T23:00:00Z,29.6350,-93.6417,2.0,262.1568263,22.27838639,-99999.0,'11111222,11111222,99999999' 
TABS,ioos:station:wmo:42051:1,2014-03-03T23:30:00Z,29.6350,-93.6417,2.0,259.6502471,21.87590684,-99999.0,'11111222,11111222,99999999' 
TABS,ioos:station:wmo:42051:1,2014-03-04T00:00:00Z,29.6350,-93.6417,2.0,257.8506974,21.42994634,-99999.0,'11111222,11111222,99999999' 
TABS,ioos:station:wmo:42051:1,2014-03-04T00:30:00Z,29.6350,-93.6417,2.0,270.9406039,18.8925435,-99999.0,'11111222,11111222,99999999' 
TABS,ioos:station:wmo:42051:1,2014-03-04T01:00:00Z,29.6350,-93.6417,2.0,262.232652,14.5030514,-99999.0,'11111222,11111222,99999999' 
TABS,ioos:station:wmo:42051:1,2014-03-04T01:30:00Z,29.6350,-93.6417,2.0,240.8528023,7.843143502,-99999.0,'11133222,11111222,99999999' 
TABS,ioos:station:wmo:42051:1,2014-03-04T02:00:00Z,29.6350,-93.6417,2.0,240.5692117,4.29414718,-99999.0,'11133222,11111222,99999999' 
TABS,ioos:station:wmo:42051:1,2014-03-04T02:30:00Z,29.6350,-93.6417,2.0,226.550728,7.575889387,-99999.0,'11133222,11111222,99999999' 
TABS,ioos:station:wmo:42051:1,2014-03-04T03:00:00Z,29.6350,-93.6417,2.0,275.2553034,12.01047876,-99999.0,'11111222,11111222,99999999' 
TABS,ioos:station:wmo:42051:1,2014-03-04T03:30:00Z,29.6350,-93.6417,2.0,275.3871729,12.67598122,-99999.0,'11111222,11111222,99999999' 
TABS,ioos:station:wmo:42051:1,2014-03-04T04:00:00Z,29.6350,-93.6417,2.0,292.90502,13.30939518,-99999.0,'11111222,11111222,99999999' 
TABS,ioos:station:wmo:42051:1,2014-03-04T04:30:00Z,29.6350,-93.6417,2.0,296.7079362,8.989021081,-99999.0,'11133222,11111222,99999999' 
TABS,ioos:station:wmo:42051:1,2014-03-04T05:00:00Z,29.6350,-93.6417,2.0,286.9432851,12.38767936,-99999.0,'11111222,11111222,99999999' 
TABS,ioos:station:wmo:42051:1,2014-03-04T05:30:00Z,29.6350,-93.6417,2.0,292.2082474,12.30262574,-99999.0,'11111222,11111222,99999999' 
TABS,ioos:station:wmo:42051:1,2014-03-04T06:00:00Z,29.6350,-93.6417,2.0,290.8221069,17.92036272,-99999.0,'11111222,11111222,99999999' 
TABS,ioos:station:wmo:42051:1,2014-03-04T06:30:00Z,29.6350,-93.6417,2.0,304.3258252,19.50723199,-99999.0,'11111222,11111222,99999999' 
TABS,ioos:station:wmo:42051:1,2014-03-04T07:00:00Z,29.6350,-93.6417,2.0,304.4754915,16.80067261,-99999.0,'11111222,11111222,99999999' 
TABS,ioos:station:wmo:42051:1,2014-03-04T07:30:00Z,29.6350,-93.6417,2.0,324.8235344,17.53165423,-99999.0,'11111222,11111222,99999999' 
TABS,ioos:station:wmo:42051:1,2014-03-04T08:00:00Z,29.6350,-93.6417,2.0,292.6067871,16.38923122,-99999.0,'11111222,11111222,99999999' 
TABS,ioos:station:wmo:42051:1,2014-03-04T08:30:00Z,29.6350,-93.6417,2.0,302.3646975,23.85572049,-99999.0,'11111222,11111222,99999999' 
TABS,ioos:station:wmo:42051:1,2014-03-04T09:00:00Z,29.6350,-93.6417,2.0,278.7584422,44.00306921,-99999.0,'11111222,11111222,99999999' 
TABS,ioos:station:wmo:42051:1,2014-03-04T09:30:00Z,29.6350,-93.6417,2.0,278.8226513,46.94541618,-99999.0,'11111222,11111222,99999999' 
TABS,ioos:station:wmo:42051:1,2014-03-04T10:00:00Z,29.6350,-93.6417,2.0,270.2560403,47.07046845,-99999.0,'11111222,11111222,99999999' 
TABS,ioos:station:wmo:42051:1,2014-03-04T10:30:00Z,29.6350,-93.6417,2.0,265.8708296,60.55715977,-99999.0,'11111222,11111222,99999999' 
TABS,ioos:station:wmo:42051:1,2014-03-04T11:00:00Z,29.6350,-93.6417,2.0,277.3989408,48.84667542,-99999.0,'11111222,11111222,99999999' 
TABS,ioos:station:wmo:42051:1,2014-03-04T11:30:00Z,29.6350,-93.6417,2.0,279.5502506,44.1214517,-99999.0,'11111222,11111222,99999999' 
TABS,ioos:station:wmo:42051:1,2014-03-04T12:00:00Z,29.6350,-93.6417,2.0,273.0523605,40.75780784,-99999.0,'11111222,11111222,99999999' 
TABS,ioos:station:wmo:42051:1,2014-03-04T12:30:00Z,29.6350,-93.6417,2.0,260.6696926,54.77460087,-99999.0,'11111222,11111222,99999999' 
TABS,ioos:station:wmo:42051:1,2014-03-04T13:00:00Z,29.6350,-93.6417,2.0,261.0623902,51.30285859,-99999.0,'11111222,11111222,99999999' 
TABS,ioos:station:wmo:42051:1,2014-03-04T13:30:00Z,29.6350,-93.6417,2.0,274.4315834,47.37160014,-99999.0,'11111222,11111222,99999999' 
TABS,ioos:station:wmo:42051:1,2014-03-04T14:00:00Z,29.6350,-93.6417,2.0,258.8577922,47.4544255,-99999.0,'11111222,11111222,99999999' 
TABS,ioos:station:wmo:42051:1,2014-03-04T14:30:00Z,29.6350,-93.6417,2.0,259.3756082,48.65401628,-99999.0,'11111222,11111222,99999999' 
TABS,ioos:station:wmo:42051:1,2014-03-04T15:00:00Z,29.6350,-93.6417,2.0,272.7518143,45.62259309,-99999.0,'11111222,11111222,99999999' 
TABS,ioos:station:wmo:42051:1,2014-03-04T15:30:00Z,29.6350,-93.6417,2.0,271.344882,41.34138121,-99999.0,'11111222,11111222,99999999' 
TABS,ioos:station:wmo:42051:1,2014-03-04T16:00:00Z,29.6350,-93.6417,2.0,258.4293646,49.2099685,-99999.0,'11111222,11111222,99999999' 